User: anonymous   Login
Location: Theydon Bois
(51.6750°N, 0.1050°E)
Time: 01:29:24
(UTC+01:00)
Language:

SJ-6B - Orbit

View from above orbital plane
View from above orbital plane
View from above satellite
View from above satellite

Ground track
Ground track

The orbit data is extracted from the following two-line orbital elements,

1 28415U 04035C   18175.60694828 -.00000177 +00000-0 -70922-5 0  9999
2 28415 097.7058 210.8590 0050510 297.2021 062.4063 15.06504590754649
Epoch (UTC): 24 June 2018 14:34:00
Eccentricity: 0.0050510
inclination: 97.7058°
perigee height: 512 km
apogee height: 582 km
right ascension of ascending node: 210.8590°
argument of perigee: 297.2021°
revolutions per day: 15.06504590
mean anomaly at epoch: 62.4063°
orbit number at epoch: 75464

The dashed part of the orbit path shows where the satellite is in the earth's shadow,  

DLR